Other Public Products
Issued by NWS Grand Forks, ND

Home | Current Version | Previous Version | Graphics & Text | Print | Product List | Glossary On
Versions: 1 2 3 4 5 6 7 8 9 10 11 12 13 14 15 16 17 18 19 20 21 22 23 24 25 26 27 28 29 30 31 32 33 34 35 36 37 38 39 40 41 42 43 44 45 46 47 48 49 50
000
FPUS83 KFGF 041931
OPUFGF
PRAIRIE TO PINES WEATHER ROUNDUP
NATIONAL WEATHER SERVICE EASTERN NORTH DAKOTA/GRAND FORKS ND
200 PM CDT FRI SEP 04 2015

 **SATELLITE DATA USED TO AUGMENT SKY COVER AT AUTOMATED STATIONS**
 *****  WEATHER ACROSS EASTERN NORTH DAKOTA  *****

CITY           SKY/WX    TMP DP  RH WIND       PRES   REMARKS
GRAND FORKS    CLOUDY    81  72  74 S16       29.76S
GRAND FORKS AF CLOUDY    81  73  75 S13       29.77S
GRAND CITY NWS   N/A     79 N/A N/A S7          N/A
BUXTON         NOT AVBL
DEVILS LAKE    CLOUDY    70  63  78 SE8       29.76R
FARGO          LGT RAIN  78  69  73 SW15      29.80F
WAHPETON ARPT  CLOUDY    73  68  83 E8        29.83R
$$

 *****  WEATHER ACROSS CENTRAL AND WESTERN NORTH DAKOTA  *****

CITY           SKY/WX    TMP DP  RH WIND       PRES   REMARKS
JAMESTOWN      CLOUDY    77  67  71 S10       29.79F
BISMARCK       CLOUDY    80  71  74 SW7       29.80F
MINOT          CLOUDY    75  64  68 NE9       29.77F
MINOT AFB      CLOUDY    75  68  78 N8        29.78S
GARRISON         N/A     76  65  68 SE12G17   29.81S
WILLISTON      CLOUDY    67  54  63 N15       29.89S
DICKINSON      CLOUDY    68  63  84 N8        29.83S HAZE
HETTINGER      SUNNY     85  59  41 S5        29.82S
$$

 *****  OTHER OBSERVATIONS NORTHEAST NORTH DAKOTA  *****

CITY           SKY/WX    TMP DP  RH WIND       PRES   REMARKS
WALHALLA       TSTM      68  68 100 MISG      29.79F
LANGDON        TSTM      66  66 100 NE8G22    29.80F
CAVALIER       CLOUDY    72  68  88 E6        29.78S
GRAFTON        CLOUDY    73  73 100 SE9       29.79R
CANDO          MOCLDY    68  64  88 NE15G22   29.83R
FORT TOTTEN    NOT AVBL
ROLLA          CLOUDY    63  63 100 NE12      29.87R FOG
RUGBY          CLOUDY    68  66  94 NE13      29.79R
 ***** THE ABOVE OBSERVATIONS ARE NON NWS ARE NOT QUALITY
        CONTROLLED AND MAY MIS-REPORT RAIN FOR SNOW...
$$

 *****  OTHER OBSERVATIONS SOUTHEAST NORTH DAKOTA *****

CITY           SKY/WX    TMP DP  RH WIND       PRES   REMARKS
COOPERSTOWN    NOT AVBL
VALLEY CITY    FAIR      75  73  94 S12       29.81R
OAKES            N/A     73  73 100 SE6       29.80S
GWINNER          N/A     75  75 100 SE8       29.82S
BUFFALO        NOT AVBL
WYNDMERE         N/A     75  73  94 SW3         N/A
 ***** THE ABOVE OBSERVATIONS ARE NON NWS ARE NOT QUALITY
       CONTROLLED AND MAY MIS-REPORT RAIN FOR SNOW...
$$

  *****  WEATHER ACROSS NORTHERN MINNESOTA  *****

CITY           SKY/WX    TMP DP  RH WIND       PRES   REMARKS
FLAG ISLAND    PTSUNNY   79  70  73 E8        29.83R
WARROAD        MOSUNNY   81  75  83 SE9       29.82S
ROSEAU         CLOUDY    81  73  78 S6        29.83R
HALLOCK        CLOUDY    73  72  94 NE5       29.77F
THF RVR FALLS  CLOUDY    81  72  74 S15       29.81S
HALSTAD        NOT AVBL
FOSSTON        CLOUDY    81  68  65 SE15      29.84F
BAUDETTE       SUNNY     85  71  63 SE16G30   29.83F HX  90
WASKISH        SUNNY     82  72  69 SE12G21   29.86R
CROOKSTON      CLOUDY    84  72  65 S17       29.79S
$$
  *****  WEATHER ACROSS CENTRAL AND WEST MINNESOTA  *****

CITY           SKY/WX    TMP DP  RH WIND       PRES   REMARKS
BEMIDJI        CLOUDY    80  70  70 S12       29.87F
PARK RAPIDS    CLOUDY    83  69  62 S16       29.88F
WADENA         CLOUDY    82  70  65 S10       29.86F
DETROIT LAKES  CLOUDY    79  70  73 S7        29.85F
MOORHEAD       LGT RAIN  77  72  83 S7        29.82S
FERGUS FALLS   CLOUDY    77  72  83 S7        29.84R
ELBOW LAKE     FAIR      77  71  82 SE5       29.85S HAZE
MORRIS MN      CLOUDY    82  70  65 E6        29.83S
STAPLES        PTSUNNY   82  70  65 SE9       29.87F
WHEATON        CLOUDY    77  72  83 SE6       29.86R
$$
  *****  WEATHER ELSEWHERE ACROSS MINNESOTA  *****

CITY           SKY/WX    TMP DP  RH WIND       PRES   REMARKS
DULUTH         MOSUNNY   76  65  68 E14       29.99F
INTRNTL FALLS  MOSUNNY   82  69  64 SE13G22   29.90F
ELY            SUNNY     82  61  47 SE9       29.99S
CLOQUET        SUNNY     73  63  68 E12       29.98F
BRAINERD       PTSUNNY   83  70  64 SE10      29.91F
HIBBING        MOSUNNY   82  70  66 SE15G26   29.95F
ALEXANDRIA     CLOUDY    83  71  67 SE10      29.89F
SAINT CLOUD    MOSUNNY   86  73  65 S12       29.89F HX  93
MINNEAPOLIS    MOSUNNY   86  72  62 SE9       29.92S HX  92
$$

  *****  WEATHER ACROSS SOUTH DAKOTA  *****

CITY           SKY/WX    TMP DP  RH WIND       PRES   REMARKS
SIOUX FALLS    CLOUDY    75  69  81 E13       29.86S
BROOKINGS      CLOUDY   N/A N/A N/A SE15      29.86F
WATERTOWN      PTSUNNY   81  69  67 SE13      29.83F
HURON          SUNNY     86  69  56 S12G21    29.76F HX  90
SISSETON         N/A     79  69  71 S5        29.82R
ABERDEEN       MOSUNNY   84  68  58 SE6       29.78F
MITCHELL       MOSUNNY   89  68  49 S18G25    29.77F HX  93
PIERRE         SUNNY     88  67  49 SE13      29.73F HX  91
MOBRIDGE       MOSUNNY   89  63  41 SE8G17    29.75F HX  90
RAPID CITY     SUNNY     86  53  32 NW3       29.82F
$$

  *****  SOME WEATHER IN NEARBY STATES *****

CITY           SKY/WX    TMP DP  RH WIND       PRES   REMARKS
GLASGOW MT     MOSUNNY   73  46  38 NE17G24   29.88F
GREAT FALLS MT LGT RAIN  51  49  92 E5        29.99S
CHEYENNE WY    MOSUNNY   80  33  18 W6        30.04F
SCOTTSBLUFF NE SUNNY     90  44  20 CALM      29.90F
OMAHA NE       CLOUDY    86  71  60 S15       29.89F HX  91
DES MOINES IA  PTSUNNY   90  70  51 S14       29.94F HX  95
DAVENPORT IA   MOSUNNY   89  71  55 VRB5      29.99F HX  95
CHICAGO IL     MOSUNNY   84  69  60 E6        30.00F
EAU CLAIRE WI  SUNNY     84  70  62 SE10      29.98S
LA CROSSE WI   PTSUNNY   85  71  63 SE7       29.97F HX  90
$$

  *****  SOME NATIONAL WEATHER *****

CITY           SKY/WX    TMP DP  RH WIND       PRES   REMARKS
LA GUARDIA NY  MOSUNNY   82  66  58 NE14G20   30.10F
RALEIGH NC     PTSUNNY   85  68  56 NE16G29   29.99S THUNDER
ATLANTA GA     PTSUNNY   89  69  51 CALM      30.02S HX  93
NEW ORLEANS LA PTSUNNY   86  74  67 S12       29.98S HX  94
OKLAHOMA CITY  PTSUNNY   91  67  44 S12G22    29.96F HX  94
ALBUQUERQUE NM CLOUDY    77  50  38 W9        30.12F
SALT LAKE CITY MOSUNNY   85  33  15 S23G37    29.82F
LOS ANGELES CA PTSUNNY   72  59  63 W13       29.90F
BOISE ID       MOSUNNY   65  43  44 CALM      29.81F
SEATTLE WA     CLOUDY    56  47  71 NW7       30.02F
$$

*** WEATHER ACROSS MANITOBA...SASKATCHEWAN AND ONTARIO ***
                ***ONTARIO***

CITY           SKY/WX    TMP DP  RH WIND       PRES   REMARKS
GERALDTON      MOSUNNY   81  59  47 S7        30.10S
THUNDER BAY    MOSUNNY   75  61  60 E14       30.06F
SIOUX LOOKOUT  PTSUNNY   81  64  57 S7        29.96F
TORONTO        MOSUNNY   81  52  36 E14G23    30.10F
BIG TROUT LK   MOSUNNY   64  63  94 SW9G17    29.93S
PICKLE LAKE    PTSUNNY   81  63  54 S8        30.02R
DRYDEN         MOSUNNY   82  64  54 SE13G21   29.95F
KENORA         PTSUNNY   81  68  65 SE15      29.88F
$$
                *** MANITOBA***

CITY           SKY/WX    TMP DP  RH WIND       PRES   REMARKS
BRANDON        PTSUNNY   68  61  77 E23G30    29.81F
DAUPHIN        CLOUDY    61  57  88 N21       29.87F
ISLAND LAKE    CLOUDY    64  64 100 N7        29.89F
PILOT MOUND      N/A     64  63  94 N10         N/A
THE PAS        PTSUNNY   63  46  55 NW5       30.03S
THOMPSON       PTSUNNY   66  45  45 NW8       29.96S
WINNIPEG       HAIL      70  66  88 S31G52    29.84R VSB 1/2
LYNN LAKE      MOSUNNY   59  45  58 NW12G18   30.02R
CHURCHILL      PTSUNNY   50  48  93 N8        29.92R
GILLAM         PTSUNNY   64  50  59 W10G17    29.93R
$$
                ***SASKATCHEWAN***

CITY           SKY/WX    TMP DP  RH WIND       PRES   REMARKS
ESTEVAN        CLOUDY    66  54  63 N14G22    29.89S
KINDERSLEY     CLOUDY    54  43  66 NE10      30.09S
LLOYDMINSTER   PTSUNNY   54  43  66 N7        30.14R
PRINCE ALBERT  CLOUDY    57  45  62 N8        30.10F
REGINA         PTSUNNY   61  46  59 N21G30    29.97F
YORKTON        PTSUNNY   63  46  55 N17       30.00R



USA.gov is the U.S. government's official web portal to all federal, state and local government web resources and services.